Вернуться в каталог

CZ-6A DEB

АктивенPO
NORAD 60776·DEBRIS·🇨🇳 China

Запущен Aug 6, 2024 с Taiyuan Satellite Launch Center

Loading…

Ближайшие Пролёты (ближайшие 24 часа)

TLE

СвежийSource: Space-Track

Эпоха: Sep 14, 2026, 07:38 UTC

1 60776U 24140FB  26257.31855801  .00040653  00000-0  16486-2 0  9995
2 60776  89.1814 272.7339 0057928 144.5476 215.9644 15.22896843113716

Отслеживайте CZ-6A DEB в реальном времени с AllMySat

Download on the App Store